{"data":{"norad_id":52610,"intl_designator":"2022-052N","name":"STARLINK-3998","alt_names":[],"object_type":"PAYLOAD","status":"ACTIVE","operator":null,"country":"US","launch_date":"2022-05-14","launch_site_code":"AFETR","launch_vehicle":null,"mission":null,"orbit_class":"UNKNOWN","rcs_meters":null,"size_class":null,"mass_kg":null,"dimensions":null,"purposes":["comms"],"wikipedia_slug":null,"has_3d_model":false,"image_url":null,"decayed_at":null,"tle_current":{"epoch":"2026-05-25T03:03:50.249088Z","epoch_age_seconds":74717,"freshness":"FRESH","line1":"1 52610U 22052N   26145.12766492 -.00006505  00000+0 -39068-3 0  9996","line2":"2 52610  53.2125 300.9742 0001564  92.1882 267.9289 15.08864613222321","mean_motion":15.08864613,"eccentricity":0.0001564,"inclination_deg":53.2125,"raan_deg":300.9742,"arg_perigee_deg":92.1882,"mean_anomaly_deg":267.9289,"bstar":-0.00039068,"rev_number":22232,"period_min":95.435997875046,"perigee_km":538.58621316566,"apogee_km":540.75010261905,"semimajor_km":6917.8051578924,"source":"CELESTRAK","updated_at":"2026-05-25T13:38:17.199334Z"}}}